Weather History for Fort Stockton, TX

Change the Weather History Date:

Sunday, December 9, 2012

  Actual Average Record
Temperature  
Mean Temperature 58 °F -  
Max Temperature 73 °F 60 °F 81 °F (1996)
Min Temperature 42 °F 36 °F 18 °F (2005)
Degree Days  
Heating Degree Days 7    
Growing Degree Days 8 (Base 50)    
Moisture  
Dew Point 27 °F    
Average Humidity 33    
Maximum Humidity 65    
Minimum Humidity 20    
Precipitation  
Precipitation 0.00 in - - ()
Sea Level Pressure  
Sea Level Pressure 29.83 in    
Wind  
Wind Speed 12 mph (West)    
Max Wind Speed 21 mph    
Max Gust Speed 22 mph    
Visibility 10 miles    
Events      
Averages and records for this station are not official NWS values.
T = Trace of Precipitation, MM = Missing Value Source: NWS Daily Summary

Daily Weather History Graph

Daily Weather History Graph

Search for Another Location

Airport:

Trip Planner

Search our weather history database for the weather conditions in past years. The results will help you decide how hot, cold, wet, or windy it might be!

Date:

Astronomy

Dec. 09, 2012 Rise Set
Actual Time 7:38 AM CST 5:50 PM CST
Civil Twilight 7:11 AM CST 6:16 PM CST
Nautical Twilight 6:41 AM CST 6:46 PM CST
Astronomical Twilight 6:12 AM CST 7:16 PM CST
Moon 3:25 AM CST (12/9) 2:48 PM CST (12/9)
Length of Visible Light 11h 04m
Length of Day
10h 11m
Waning Crescent, 18% of the Moon is Illuminated
Dec 9
Waning Crescent
Dec 13
New
Dec 19
First Quarter
Dec 28
Full
Jan 4
Last Quarter

Hourly Weather History & Observations

Time (CST) Temp. Windchill Dew Point Humidity Pressure Visibility Wind Dir Wind Speed Gust Speed Precip Events Conditions
12:53 AM 53.1 °F - 21.9 °F 30% 29.77 in 10.0 mi SW 11.5 mph - N/A   Clear
1:53 AM 54.0 °F - 21.9 °F 29% 29.77 in 10.0 mi SW 12.7 mph - N/A   Clear
2:53 AM 54.0 °F - 21.9 °F 29% 29.77 in 10.0 mi SW 13.8 mph - N/A   Clear
3:53 AM 53.1 °F - 21.9 °F 30% 29.77 in 10.0 mi SW 13.8 mph - N/A   Clear
4:53 AM 54.0 °F - 21.0 °F 28% 29.78 in 10.0 mi SSW 12.7 mph - N/A   Clear
5:53 AM 53.1 °F - 21.0 °F 29% 29.80 in 10.0 mi SSW 10.4 mph - N/A   Clear
6:53 AM 53.1 °F - 21.9 °F 30% 29.82 in 10.0 mi SW 11.5 mph - N/A   Clear
7:53 AM 52.0 °F - 23.0 °F 32% 29.85 in 10.0 mi SSW 11.5 mph - N/A   Clear
8:53 AM 57.0 °F - 25.0 °F 29% 29.86 in 10.0 mi SW 10.4 mph - N/A   Clear
9:53 AM 66.0 °F - 28.0 °F 24% 29.87 in 10.0 mi WSW 10.4 mph - N/A   Clear
10:53 AM 66.9 °F - 30.9 °F 26% 29.87 in 10.0 mi West 11.5 mph - N/A   Clear
11:53 AM 69.1 °F - 32.0 °F 25% 29.84 in 10.0 mi West 12.7 mph 21.9 mph N/A   Clear
12:53 PM 73.0 °F - 30.9 °F 21% 29.79 in 10.0 mi Variable 5.8 mph 19.6 mph N/A   Clear
1:53 PM 73.0 °F - 30.0 °F 20% 29.75 in 10.0 mi WSW 9.2 mph - N/A   Clear
2:53 PM 72.0 °F - 30.0 °F 21% 29.74 in 10.0 mi WNW 12.7 mph - N/A   Clear
3:53 PM 73.0 °F - 28.9 °F 20% 29.73 in 10.0 mi NW 12.7 mph - N/A   Clear
4:53 PM 66.0 °F - 30.0 °F 26% 29.75 in 10.0 mi NE 15.0 mph - N/A   Clear
5:53 PM 60.1 °F - 30.0 °F 32% 29.78 in 10.0 mi NE 10.4 mph - N/A   Clear
6:53 PM 55.9 °F - 30.0 °F 37% 29.82 in 10.0 mi NE 9.2 mph - N/A   Clear
7:53 PM 52.0 °F - 30.0 °F 43% 29.89 in 10.0 mi NNE 9.2 mph - N/A   Clear
8:53 PM 48.0 °F - 33.1 °F 56% 29.91 in 10.0 mi NNE 12.7 mph - N/A   Clear
9:53 PM 44.1 °F 39.0 °F 33.1 °F 65% 29.95 in 10.0 mi NE 9.2 mph - N/A   Clear
10:53 PM 43.0 °F 37.2 °F 30.9 °F 62% 30.01 in 10.0 mi NNE 10.4 mph - N/A   Partly Cloudy
11:53 PM 42.1 °F 33.1 °F 18.0 °F 38% 30.10 in 10.0 mi North 20.7 mph - N/A   Overcast